Вернуться в каталог

INTELSAT 3-F8

АктивенСвязьMEO
NORAD 4478·PAYLOAD· XX

Запущен Jul 23, 1970 с Cape Canaveral Space Force Station

Loading…

Ближайшие Пролёты (ближайшие 24 часа)

TLE

СвежийSource: Space-Track

Эпоха: Sep 14, 2026, 15:23 UTC

1 04478U 70055A   26257.64154830 -.00000320  00000-0  00000-0 0  9999
2 04478   5.6743  68.2907 0319946 119.8259 307.3627  1.02266240123747

Отслеживайте INTELSAT 3-F8 в реальном времени с AllMySat

Download on the App Store